| time (UTC) | temp F | wind direction | speed MPH | gust MPH | rain 1hr in | rain 24hr in | rain mn in | humidity % | barometer mb |
| 20260510225434 | 44 | 11 | 3.0 | 5.0 | 0.00 | 0.00 | 0.00 | 54 | 1006.4 |
| 20260510224934 | 44 | 0 | 3.0 | 6.0 | 0.00 | 0.00 | 0.00 | 54 | 1006.3 |
| 20260510224434 | 44 | 350 | 3.0 | 6.0 | 0.00 | 0.00 | 0.00 | 55 | 1006.4 |
| 20260510223934 | 44 | 355 | 3.0 | 5.0 | 0.00 | 0.00 | 0.00 | 55 | 1006.3 |
| 20260510223434 | 44 | 41 | 3.0 | 4.0 | 0.00 | 0.00 | 0.00 | 55 | 1006.3 |
| 20260510222934 | 44 | 355 | 3.0 | 4.0 | 0.00 | 0.00 | 0.00 | 55 | 1006.3 |
| 20260510222434 | 44 | 333 | 4.0 | 6.0 | 0.00 | 0.00 | 0.00 | 54 | 1006.2 |
| 20260510221934 | 45 | 355 | 4.0 | 8.0 | 0.00 | 0.00 | 0.00 | 55 | 1006.2 |
| 20260510221434 | 45 | 0 | 4.0 | 9.0 | 0.00 | 0.00 | 0.00 | 54 | 1006.1 |
| 20260510220934 | 46 | 22 | 5.0 | 6.0 | 0.00 | 0.00 | 0.00 | 54 | 1006.1 |
| 20260510220434 | 46 | 348 | 5.0 | 11.0 | 0.00 | 0.00 | 0.00 | 51 | 1006.1 |
| 20260510215934 | 47 | 11 | 4.0 | 6.0 | 0.00 | 0.00 | 0.00 | 52 | 1005.9 |
| 20260510215434 | 48 | 331 | 3.0 | 8.0 | 0.00 | 0.00 | 0.00 | 51 | 1005.8 |
| 20260510214934 | 48 | 333 | 4.0 | 6.0 | 0.00 | 0.00 | 0.00 | 53 | 1005.9 |
| 20260510214434 | 48 | 5 | 6.0 | 8.0 | 0.00 | 0.00 | 0.00 | 52 | 1005.8 |
| 20260510213934 | 48 | 355 | 9.0 | 12.0 | 0.00 | 0.00 | 0.00 | 52 | 1005.8 |
| 20260510213434 | 48 | 314 | 9.0 | 15.0 | 0.00 | 0.00 | 0.00 | 51 | 1005.7 |
| 20260510212934 | 48 | 315 | 8.0 | 13.0 | 0.00 | 0.00 | 0.00 | 50 | 1005.7 |
| 20260510212434 | 48 | 301 | 8.0 | 14.0 | 0.00 | 0.00 | 0.00 | 52 | 1005.6 |
| 20260510211934 | 48 | 328 | 8.0 | 11.0 | 0.00 | 0.00 | 0.00 | 51 | 1005.6 |
| 20260510211434 | 48 | 318 | 8.0 | 15.0 | 0.00 | 0.00 | 0.00 | 51 | 1005.5 |
| 20260510210934 | 48 | 306 | 7.0 | 11.0 | 0.00 | 0.00 | 0.00 | 51 | 1005.5 |
| 20260510210434 | 48 | 301 | 7.0 | 12.0 | 0.00 | 0.00 | 0.00 | 52 | 1005.4 |
| 20260510205934 | 49 | 309 | 8.0 | 9.0 | 0.00 | 0.00 | 0.00 | 51 | 1005.4 |
| 20260510205434 | 50 | 273 | 8.0 | 12.0 | 0.00 | 0.00 | 0.00 | 50 | 1005.3 |
| 20260510204935 | 48 | 295 | 8.0 | 14.0 | 0.00 | 0.00 | 0.00 | 53 | 1005.2 |
| 20260510204434 | 48 | 282 | 8.0 | 13.0 | 0.00 | 0.00 | 0.00 | 52 | 1005.2 |
| 20260510203935 | 47 | 287 | 9.0 | 13.0 | 0.00 | 0.00 | 0.00 | 57 | 1005.2 |
| 20260510203434 | 46 | 294 | 10.0 | 13.0 | 0.00 | 0.00 | 0.00 | 58 | 1005.3 |
| 20260510202935 | 46 | 305 | 9.0 | 16.0 | 0.00 | 0.00 | 0.00 | 59 | 1005.2 |
| 20260510202434 | 45 | 296 | 11.0 | 13.0 | 0.00 | 0.00 | 0.00 | 57 | 1005.3 |
| 20260510201935 | 45 | 282 | 12.0 | 19.0 | 0.00 | 0.00 | 0.00 | 58 | 1005.4 |
| 20260510201435 | 46 | 288 | 12.0 | 18.0 | 0.00 | 0.00 | 0.00 | 56 | 1005.3 |
| 20260510200935 | 46 | 285 | 13.0 | 19.0 | 0.00 | 0.00 | 0.00 | 56 | 1005.1 |
| 20260510200435 | 47 | 303 | 13.0 | 20.0 | 0.00 | 0.00 | 0.00 | 54 | 1005.1 |
| 20260510195935 | 47 | 300 | 13.0 | 18.0 | 0.00 | 0.00 | 0.00 | 52 | 1005.0 |
| 20260510195435 | 47 | 306 | 11.0 | 18.0 | 0.00 | 0.00 | 0.00 | 51 | 1004.9 |
| 20260510194935 | 48 | 294 | 11.0 | 14.0 | 0.00 | 0.00 | 0.00 | 53 | 1004.9 |
| 20260510194435 | 48 | 308 | 11.0 | 19.0 | 0.00 | 0.00 | 0.00 | 52 | 1004.8 |
| 20260510193935 | 48 | 294 | 11.0 | 15.0 | 0.00 | 0.00 | 0.00 | 55 | 1004.8 |
| 20260510193435 | 48 | 311 | 12.0 | 17.0 | 0.00 | 0.00 | 0.00 | 55 | 1004.8 |
| 20260510192935 | 47 | 291 | 13.0 | 20.0 | 0.00 | 0.00 | 0.00 | 56 | 1004.7 |
| 20260510192435 | 47 | 283 | 12.0 | 22.0 | 0.00 | 0.00 | 0.00 | 56 | 1004.7 |
| 20260510191935 | 47 | 305 | 11.0 | 19.0 | 0.00 | 0.00 | 0.00 | 58 | 1004.7 |
| 20260510191435 | 46 | 280 | 12.0 | 17.0 | 0.00 | 0.00 | 0.00 | 59 | 1004.7 |
| 20260510190935 | 46 | 296 | 13.0 | 20.0 | 0.00 | 0.00 | 0.00 | 60 | 1004.6 |
| 20260510190436 | 46 | 277 | 14.0 | 19.0 | 0.00 | 0.00 | 0.00 | 59 | 1004.6 |
| 20260510185935 | 47 | 302 | 13.0 | 20.0 | 0.00 | 0.00 | 0.00 | 60 | 1004.5 |
| 20260510185435 | 47 | 300 | 11.0 | 19.0 | 0.00 | 0.00 | 0.00 | 61 | 1004.4 |
| 20260510184935 | 47 | 299 | 11.0 | 19.0 | 0.00 | 0.00 | 0.00 | 59 | 1004.3 |
| 20260510184435 | 47 | 286 | 12.0 | 21.0 | 0.00 | 0.00 | 0.00 | 58 | 1004.2 |
| 20260510183935 | 48 | 298 | 10.0 | 18.0 | 0.00 | 0.00 | 0.00 | 56 | 1004.0 |
| 20260510183435 | 48 | 300 | 10.0 | 15.0 | 0.00 | 0.00 | 0.00 | 55 | 1003.8 |
| 20260510182935 | 48 | 289 | 12.0 | 17.0 | 0.00 | 0.00 | 0.00 | 54 | 1003.7 |
| 20260510182435 | 49 | 303 | 13.0 | 17.0 | 0.00 | 0.00 | 0.00 | 53 | 1003.6 |
| 20260510181935 | 49 | 292 | 13.0 | 20.0 | 0.00 | 0.00 | 0.00 | 52 | 1003.5 |
| 20260510181435 | 49 | 320 | 11.0 | 15.0 | 0.00 | 0.00 | 0.00 | 53 | 1003.5 |
| 20260510180935 | 49 | 306 | 10.0 | 16.0 | 0.00 | 0.00 | 0.00 | 53 | 1003.4 |
| 20260510180435 | 48 | 309 | 11.0 | 15.0 | 0.00 | 0.00 | 0.00 | 54 | 1003.4 |
| 20260510175935 | 48 | 303 | 12.0 | 17.0 | 0.00 | 0.00 | 0.00 | 54 | 1003.3 |
| 20260510175435 | 49 | 313 | 11.0 | 19.0 | 0.00 | 0.00 | 0.00 | 53 | 1003.3 |
| 20260510174935 | 49 | 336 | 10.0 | 18.0 | 0.00 | 0.00 | 0.00 | 52 | 1003.2 |
| 20260510174435 | 49 | 355 | 10.0 | 14.0 | 0.00 | 0.00 | 0.00 | 52 | 1003.1 |
| 20260510173935 | 49 | 328 | 11.0 | 17.0 | 0.00 | 0.00 | 0.00 | 49 | 1003.1 |
| 20260510173435 | 50 | 324 | 12.0 | 18.0 | 0.00 | 0.00 | 0.00 | 51 | 1003.2 |
| 20260510172936 | 49 | 275 | 11.0 | 17.0 | 0.00 | 0.00 | 0.00 | 51 | 1003.2 |
| 20260510172435 | 48 | 323 | 9.0 | 18.0 | 0.00 | 0.00 | 0.00 | 52 | 1003.2 |
| 20260510171935 | 49 | 298 | 8.0 | 17.0 | 0.00 | 0.00 | 0.00 | 51 | 1003.3 |
| 20260510171436 | 50 | 355 | 7.0 | 13.0 | 0.00 | 0.00 | 0.00 | 51 | 1003.2 |
| 20260510170935 | 49 | 340 | 7.0 | 12.0 | 0.00 | 0.00 | 0.00 | 53 | 1003.1 |
| 20260510170435 | 48 | 300 | 6.0 | 15.0 | 0.00 | 0.00 | 0.00 | 55 | 1003.2 |
| 20260510165935 | 47 | 300 | 3.0 | 9.0 | 0.00 | 0.00 | 0.00 | 56 | 1003.2 |
| 20260510165435 | 46 | 323 | 3.0 | 8.0 | 0.00 | 0.00 | 0.00 | 62 | 1003.3 |
| 20260510164935 | 46 | 294 | 2.0 | 8.0 | 0.00 | 0.00 | 0.00 | 60 | 1003.4 |
| 20260510164435 | 46 | 5 | 3.0 | 4.0 | 0.00 | 0.00 | 0.00 | 60 | 1003.2 |
| 20260510163935 | 46 | 355 | 3.0 | 5.0 | 0.00 | 0.00 | 0.00 | 59 | 1003.2 |
| 20260510163435 | 46 | 355 | 2.0 | 5.0 | 0.00 | 0.00 | 0.00 | 58 | 1003.2 |
| 20260510162935 | 46 | 355 | 2.0 | 4.0 | 0.00 | 0.00 | 0.00 | 59 | 1003.2 |
| 20260510162435 | 47 | 41 | 3.0 | 6.0 | 0.00 | 0.00 | 0.00 | 58 | 1003.2 |
| 20260510161935 | 47 | 14 | 3.0 | 5.0 | 0.00 | 0.00 | 0.00 | 58 | 1003.1 |
| 20260510161435 | 47 | 355 | 2.0 | 6.0 | 0.00 | 0.00 | 0.00 | 58 | 1003.1 |
| 20260510160935 | 47 | 348 | 2.0 | 4.0 | 0.00 | 0.00 | 0.00 | 60 | 1003.1 |
| 20260510160435 | 47 | 355 | 4.0 | 4.0 | 0.00 | 0.00 | 0.00 | 59 | 1003.1 |
| 20260510155936 | 47 | 317 | 4.0 | 10.0 | 0.00 | 0.00 | 0.00 | 53 | 1003.1 |
| 20260510155436 | 47 | 355 | 3.0 | 8.0 | 0.00 | 0.00 | 0.00 | 58 | 1003.1 |
| 20260510154936 | 46 | 10 | 2.0 | 4.0 | 0.00 | 0.00 | 0.00 | 58 | 1002.9 |
| 20260510154436 | 47 | 11 | 4.0 | 4.0 | 0.00 | 0.00 | 0.00 | 60 | 1003.0 |
| 20260510153936 | 47 | 0 | 5.0 | 13.0 | 0.00 | 0.00 | 0.00 | 60 | 1003.0 |
| 20260510153436 | 47 | 344 | 4.0 | 8.0 | 0.00 | 0.00 | 0.00 | 60 | 1002.9 |
| 20260510152936 | 47 | 5 | 7.0 | 8.0 | 0.00 | 0.00 | 0.00 | 59 | 1002.8 |
| 20260510152436 | 47 | 315 | 11.0 | 18.0 | 0.00 | 0.00 | 0.00 | 57 | 1002.8 |
| 20260510151936 | 47 | 300 | 10.0 | 15.0 | 0.00 | 0.00 | 0.00 | 51 | 1002.7 |
| 20260510151439 | 48 | 309 | 9.0 | 15.0 | 0.00 | 0.00 | 0.00 | 53 | 1002.6 |
| 20260510150936 | 47 | 313 | 8.0 | 13.0 | 0.00 | 0.00 | 0.00 | 52 | 1002.6 |
| 20260510150436 | 47 | 329 | 8.0 | 16.0 | 0.00 | 0.00 | 0.00 | 54 | 1002.5 |
| 20260510145936 | 47 | 319 | 8.0 | 13.0 | 0.00 | 0.00 | 0.00 | 53 | 1002.6 |
| 20260510145436 | 46 | 298 | 9.0 | 13.0 | 0.00 | 0.00 | 0.00 | 57 | 1002.6 |
| 20260510144936 | 46 | 292 | 10.0 | 15.0 | 0.00 | 0.00 | 0.00 | 55 | 1002.6 |
| 20260510144436 | 46 | 315 | 9.0 | 13.0 | 0.00 | 0.00 | 0.00 | 57 | 1002.5 |
| 20260510143936 | 45 | 279 | 9.0 | 16.0 | 0.00 | 0.00 | 0.00 | 58 | 1002.4 |
| 20260510143436 | 45 | 319 | 9.0 | 15.0 | 0.00 | 0.00 | 0.00 | 58 | 1002.4 |
| 20260510142936 | 45 | 296 | 8.0 | 15.0 | 0.00 | 0.00 | 0.00 | 58 | 1002.4 |
| 20260510142436 | 45 | 292 | 7.0 | 15.0 | 0.00 | 0.00 | 0.00 | 58 | 1002.3 |
| 20260510141936 | 46 | 300 | 6.0 | 13.0 | 0.00 | 0.00 | 0.00 | 59 | 1002.4 |
| 20260510141436 | 46 | 329 | 6.0 | 12.0 | 0.00 | 0.00 | 0.00 | 62 | 1002.4 |
| 20260510140936 | 45 | 345 | 7.0 | 12.0 | 0.00 | 0.00 | 0.00 | 58 | 1002.3 |
| 20260510140436 | 44 | 311 | 7.0 | 12.0 | 0.00 | 0.00 | 0.00 | 60 | 1002.4 |
| 20260510135936 | 44 | 342 | 8.0 | 12.0 | 0.00 | 0.00 | 0.00 | 59 | 1002.4 |
| 20260510135436 | 44 | 307 | 9.0 | 12.0 | 0.00 | 0.00 | 0.00 | 58 | 1002.4 |
| 20260510134936 | 44 | 309 | 9.0 | 14.0 | 0.00 | 0.00 | 0.00 | 59 | 1002.5 |
| 20260510134436 | 44 | 317 | 9.0 | 15.0 | 0.00 | 0.00 | 0.00 | 58 | 1002.4 |
| 20260510133936 | 43 | 317 | 8.0 | 14.0 | 0.00 | 0.00 | 0.00 | 60 | 1002.4 |
| 20260510133436 | 43 | 331 | 7.0 | 11.0 | 0.00 | 0.00 | 0.00 | 60 | 1002.4 |
| 20260510132936 | 43 | 342 | 9.0 | 14.0 | 0.00 | 0.00 | 0.00 | 62 | 1002.4 |
| 20260510132436 | 43 | 298 | 8.0 | 18.0 | 0.00 | 0.00 | 0.00 | 61 | 1002.3 |
| 20260510131936 | 42 | 295 | 8.0 | 15.0 | 0.00 | 0.00 | 0.00 | 62 | 1002.2 |
| 20260510131436 | 42 | 327 | 8.0 | 11.0 | 0.00 | 0.00 | 0.00 | 63 | 1002.2 |
| 20260510130936 | 42 | 316 | 8.0 | 13.0 | 0.00 | 0.00 | 0.00 | 63 | 1002.2 |
| 20260510130436 | 42 | 305 | 7.0 | 11.0 | 0.00 | 0.00 | 0.00 | 64 | 1002.2 |
| 20260510125936 | 41 | 300 | 8.0 | 15.0 | 0.00 | 0.00 | 0.00 | 65 | 1002.1 |
| 20260510125436 | 41 | 327 | 8.0 | 14.0 | 0.00 | 0.00 | 0.00 | 66 | 1002.2 |
| 20260510124936 | 41 | 313 | 7.0 | 13.0 | 0.00 | 0.00 | 0.00 | 67 | 1001.9 |
| 20260510124436 | 40 | 311 | 7.0 | 11.0 | 0.00 | 0.00 | 0.00 | 68 | 1001.9 |
| 20260510123936 | 40 | 319 | 9.0 | 13.0 | 0.00 | 0.00 | 0.00 | 70 | 1001.9 |
| 20260510123436 | 40 | 342 | 8.0 | 14.0 | 0.00 | 0.00 | 0.00 | 70 | 1001.9 |
| 20260510122936 | 40 | 294 | 8.0 | 13.0 | 0.00 | 0.00 | 0.00 | 72 | 1001.8 |
| 20260510122436 | 39 | 323 | 8.0 | 14.0 | 0.00 | 0.00 | 0.00 | 75 | 1001.7 |
| 20260510121936 | 39 | 315 | 8.0 | 11.0 | 0.00 | 0.00 | 0.00 | 77 | 1001.6 |
| 20260510121436 | 38 | 327 | 8.0 | 15.0 | 0.00 | 0.00 | 0.00 | 78 | 1001.6 |
| 20260510120936 | 38 | 310 | 8.0 | 11.0 | 0.00 | 0.00 | 0.00 | 80 | 1001.6 |
| 20260510120436 | 38 | 304 | 8.0 | 13.0 | 0.00 | 0.00 | 0.00 | 81 | 1001.5 |
| 20260510115936 | 38 | 304 | 7.0 | 12.0 | 0.00 | 0.00 | 0.00 | 82 | 1001.4 |
| 20260510115436 | 37 | 284 | 6.0 | 11.0 | 0.00 | 0.00 | 0.00 | 83 | 1001.3 |
| 20260510114936 | 37 | 285 | 6.0 | 10.0 | 0.00 | 0.00 | 0.00 | 84 | 1001.3 |
| 20260510114436 | 36 | 305 | 6.0 | 9.0 | 0.00 | 0.00 | 0.00 | 85 | 1001.2 |
| 20260510113936 | 36 | 281 | 6.0 | 10.0 | 0.00 | 0.00 | 0.00 | 85 | 1001.1 |
| 20260510113436 | 35 | 297 | 6.0 | 9.0 | 0.00 | 0.00 | 0.00 | 85 | 1001.0 |
| 20260510112936 | 35 | 284 | 5.0 | 8.0 | 0.00 | 0.00 | 0.00 | 86 | 1000.9 |
| 20260510112436 | 35 | 286 | 5.0 | 9.0 | 0.00 | 0.00 | 0.00 | 86 | 1000.8 |
| 20260510111936 | 34 | 277 | 5.0 | 9.0 | 0.00 | 0.00 | 0.00 | 87 | 1000.7 |
| 20260510111436 | 34 | 286 | 4.0 | 6.0 | 0.00 | 0.00 | 0.00 | 87 | 1000.6 |
| 20260510110936 | 33 | 292 | 4.0 | 6.0 | 0.00 | 0.00 | 0.00 | 87 | 1000.5 |
| 20260510110437 | 33 | 285 | 4.0 | 6.0 | 0.00 | 0.00 | 0.00 | 87 | 1000.4 |
| 20260510105937 | 33 | 282 | 4.0 | 4.0 | 0.00 | 0.00 | 0.00 | 87 | 1000.4 |
| 20260510105437 | 33 | 285 | 3.0 | 4.0 | 0.00 | 0.00 | 0.00 | 86 | 1000.4 |
| 20260510104937 | 33 | 286 | 3.0 | 4.0 | 0.00 | 0.00 | 0.00 | 86 | 1000.3 |
| 20260510104437 | 33 | 281 | 3.0 | 4.0 | 0.00 | 0.00 | 0.00 | 86 | 1000.2 |
| 20260510103937 | 33 | 286 | 4.0 | 4.0 | 0.00 | 0.00 | 0.00 | 86 | 1000.2 |
| 20260510103437 | 33 | 284 | 4.0 | 5.0 | 0.00 | 0.00 | 0.00 | 85 | 1000.1 |
| 20260510102937 | 33 | 284 | 3.0 | 4.0 | 0.00 | 0.00 | 0.00 | 85 | 1000.0 |
| 20260510102437 | 33 | 285 | 3.0 | 4.0 | 0.00 | 0.00 | 0.00 | 85 | 999.9 |
| 20260510101937 | 33 | 284 | 3.0 | 4.0 | 0.00 | 0.00 | 0.00 | 84 | 999.8 |
| 20260510101437 | 33 | 284 | 3.0 | 4.0 | 0.00 | 0.00 | 0.00 | 84 | 999.7 |
| 20260510100937 | 33 | 286 | 3.0 | 4.0 | 0.00 | 0.00 | 0.00 | 84 | 999.7 |
| 20260510100437 | 33 | 285 | 3.0 | 4.0 | 0.00 | 0.00 | 0.00 | 85 | 999.7 |
| 20260510095937 | 33 | 284 | 3.0 | 4.0 | 0.00 | 0.00 | 0.00 | 85 | 999.6 |
| 20260510095437 | 33 | 287 | 3.0 | 4.0 | 0.00 | 0.00 | 0.00 | 85 | 999.4 |
| 20260510094937 | 33 | 284 | 3.0 | 4.0 | 0.00 | 0.00 | 0.00 | 84 | 999.4 |
| 20260510094437 | 33 | 284 | 4.0 | 4.0 | 0.00 | 0.00 | 0.00 | 84 | 999.3 |
| 20260510093937 | 33 | 288 | 4.0 | 6.0 | 0.00 | 0.00 | 0.00 | 84 | 999.3 |
| 20260510093437 | 33 | 287 | 3.0 | 6.0 | 0.00 | 0.00 | 0.00 | 84 | 999.3 |
| 20260510092937 | 33 | 284 | 3.0 | 5.0 | 0.00 | 0.00 | 0.00 | 83 | 999.2 |
| 20260510092437 | 33 | 290 | 4.0 | 6.0 | 0.00 | 0.00 | 0.00 | 83 | 999.2 |
| 20260510091937 | 33 | 286 | 5.0 | 8.0 | 0.00 | 0.00 | 0.00 | 83 | 999.1 |
| 20260510091437 | 33 | 295 | 5.0 | 9.0 | 0.00 | 0.00 | 0.00 | 83 | 999.1 |
| 20260510090937 | 33 | 292 | 5.0 | 8.0 | 0.00 | 0.00 | 0.00 | 83 | 999.0 |
| 20260510090437 | 33 | 288 | 5.0 | 8.0 | 0.00 | 0.00 | 0.00 | 83 | 998.9 |
| 20260510085937 | 33 | 289 | 5.0 | 8.0 | 0.00 | 0.00 | 0.00 | 83 | 998.8 |
| 20260510085437 | 33 | 294 | 4.0 | 8.0 | 0.00 | 0.00 | 0.00 | 83 | 998.7 |
| 20260510084937 | 33 | 289 | 4.0 | 6.0 | 0.00 | 0.00 | 0.00 | 82 | 998.7 |
| 20260510084437 | 33 | 288 | 4.0 | 6.0 | 0.00 | 0.00 | 0.00 | 82 | 998.7 |
| 20260510083937 | 33 | 285 | 4.0 | 6.0 | 0.00 | 0.00 | 0.00 | 82 | 998.6 |
| 20260510083437 | 33 | 284 | 3.0 | 6.0 | 0.00 | 0.00 | 0.00 | 82 | 998.4 |
| 20260510082937 | 33 | 275 | 3.0 | 4.0 | 0.00 | 0.00 | 0.00 | 82 | 998.3 |
| 20260510082437 | 33 | 283 | 2.0 | 4.0 | 0.00 | 0.00 | 0.00 | 82 | 998.3 |
| 20260510081937 | 33 | 288 | 2.0 | 4.0 | 0.00 | 0.00 | 0.00 | 81 | 998.3 |
| 20260510081437 | 33 | 283 | 3.0 | 4.0 | 0.00 | 0.00 | 0.00 | 81 | 998.2 |
| 20260510080937 | 33 | 268 | 3.0 | 4.0 | 0.00 | 0.00 | 0.00 | 81 | 998.2 |
| 20260510080437 | 34 | 279 | 3.0 | 4.0 | 0.00 | 0.00 | 0.00 | 81 | 998.2 |
| 20260510075937 | 34 | 285 | 3.0 | 4.0 | 0.00 | 0.00 | 0.00 | 81 | 998.1 |
| 20260510075437 | 34 | 279 | 3.0 | 4.0 | 0.00 | 0.00 | 0.00 | 81 | 998.0 |
| 20260510074937 | 34 | 286 | 2.0 | 3.0 | 0.00 | 0.00 | 0.00 | 81 | 997.8 |
| 20260510074437 | 34 | 279 | 3.0 | 4.0 | 0.00 | 0.00 | 0.00 | 80 | 997.8 |
| 20260510073937 | 34 | 284 | 4.0 | 4.0 | 0.00 | 0.00 | 0.00 | 79 | 997.8 |
| 20260510073437 | 34 | 284 | 5.0 | 6.0 | 0.00 | 0.00 | 0.00 | 79 | 997.8 |
| 20260510072937 | 34 | 287 | 5.0 | 7.0 | 0.00 | 0.00 | 0.00 | 79 | 997.7 |
| 20260510072437 | 34 | 294 | 5.0 | 8.0 | 0.00 | 0.00 | 0.00 | 79 | 997.7 |
| 20260510071938 | 34 | 291 | 4.0 | 7.0 | 0.00 | 0.00 | 0.00 | 79 | 997.6 |
| 20260510071437 | 34 | 286 | 3.0 | 6.0 | 0.00 | 0.00 | 0.00 | 78 | 997.5 |
| 20260510070937 | 34 | 285 | 3.0 | 4.0 | 0.00 | 0.00 | 0.00 | 78 | 997.5 |
| 20260510070437 | 34 | 280 | 3.0 | 4.0 | 0.00 | 0.00 | 0.00 | 77 | 997.5 |
| 20260510065937 | 34 | 284 | 3.0 | 4.0 | 0.00 | 0.00 | 0.00 | 77 | 997.4 |
| 20260510065437 | 35 | 279 | 3.0 | 4.0 | 0.00 | 0.00 | 0.00 | 77 | 997.4 |
| 20260510064937 | 35 | 282 | 3.0 | 4.0 | 0.00 | 0.00 | 0.00 | 76 | 997.3 |
| 20260510064437 | 35 | 285 | 3.0 | 4.0 | 0.00 | 0.00 | 0.00 | 76 | 997.3 |
| 20260510063937 | 35 | 293 | 3.0 | 4.0 | 0.00 | 0.00 | 0.00 | 75 | 997.1 |
| 20260510063437 | 36 | 294 | 4.0 | 5.0 | 0.00 | 0.00 | 0.00 | 73 | 997.1 |
| 20260510062937 | 37 | 294 | 5.0 | 9.0 | 0.00 | 0.00 | 0.00 | 73 | 997.0 |
| 20260510062437 | 37 | 321 | 6.0 | 8.0 | 0.00 | 0.00 | 0.00 | 72 | 997.0 |
| 20260510061937 | 38 | 302 | 7.0 | 12.0 | 0.00 | 0.00 | 0.00 | 72 | 997.0 |
| 20260510061438 | 38 | 302 | 6.0 | 9.0 | 0.00 | 0.00 | 0.00 | 71 | 997.0 |
| 20260510060938 | 38 | 327 | 6.0 | 12.0 | 0.00 | 0.00 | 0.00 | 71 | 997.0 |
| 20260510060438 | 38 | 306 | 6.0 | 10.0 | 0.00 | 0.00 | 0.00 | 70 | 996.9 |
| 20260510055938 | 38 | 334 | 7.0 | 11.0 | 0.00 | 0.00 | 0.00 | 70 | 996.9 |
| 20260510055438 | 38 | 319 | 7.0 | 10.0 | 0.00 | 0.00 | 0.00 | 70 | 996.9 |
| 20260510054938 | 38 | 325 | 7.0 | 12.0 | 0.00 | 0.00 | 0.00 | 70 | 996.8 |
| 20260510054438 | 38 | 336 | 8.0 | 12.0 | 0.00 | 0.00 | 0.00 | 69 | 996.9 |
| 20260510053938 | 39 | 310 | 8.0 | 15.0 | 0.00 | 0.00 | 0.00 | 68 | 996.8 |
| 20260510053438 | 39 | 312 | 7.0 | 13.0 | 0.00 | 0.00 | 0.00 | 68 | 996.7 |
| 20260510052938 | 39 | 325 | 7.0 | 13.0 | 0.00 | 0.00 | 0.00 | 67 | 996.6 |
| 20260510052438 | 39 | 343 | 7.0 | 13.0 | 0.00 | 0.00 | 0.00 | 67 | 996.5 |
| 20260510051938 | 39 | 332 | 7.0 | 11.0 | 0.00 | 0.00 | 0.00 | 66 | 996.5 |
| 20260510051438 | 39 | 327 | 7.0 | 10.0 | 0.00 | 0.00 | 0.00 | 66 | 996.4 |
| 20260510050938 | 39 | 339 | 7.0 | 13.0 | 0.00 | 0.00 | 0.00 | 66 | 996.3 |
| 20260510050438 | 39 | 324 | 6.0 | 10.0 | 0.00 | 0.00 | 0.00 | 66 | 996.3 |
| 20260510045938 | 39 | 295 | 6.0 | 10.0 | 0.00 | 0.00 | 0.00 | 65 | 996.3 |
| 20260510045438 | 39 | 346 | 7.0 | 11.0 | 0.00 | 0.00 | 0.00 | 65 | 996.3 |
| 20260510044938 | 39 | 301 | 7.0 | 11.0 | 0.00 | 0.00 | 0.00 | 65 | 996.3 |
| 20260510044438 | 39 | 311 | 7.0 | 12.0 | 0.00 | 0.00 | 0.00 | 65 | 996.3 |
| 20260510043938 | 39 | 279 | 8.0 | 13.0 | 0.00 | 0.00 | 0.00 | 64 | 996.3 |
| 20260510043438 | 39 | 307 | 8.0 | 13.0 | 0.00 | 0.00 | 0.00 | 64 | 996.3 |
| 20260510042938 | 39 | 306 | 8.0 | 12.0 | 0.00 | 0.00 | 0.00 | 64 | 996.2 |
| 20260510042438 | 39 | 314 | 8.0 | 11.0 | 0.00 | 0.00 | 0.00 | 63 | 996.2 |
| 20260510041938 | 39 | 297 | 9.0 | 11.0 | 0.00 | 0.00 | 0.00 | 63 | 996.1 |
| 20260510041438 | 39 | 303 | 10.0 | 14.0 | 0.00 | 0.00 | 0.00 | 63 | 996.0 |
| 20260510040938 | 40 | 321 | 9.0 | 15.0 | 0.00 | 0.00 | 0.00 | 62 | 996.1 |
| 20260510040440 | 40 | 315 | 9.0 | 18.0 | 0.00 | 0.00 | 0.00 | 63 | 996.0 |
| 20260510035938 | 40 | 344 | 9.0 | 14.0 | 0.00 | 0.00 | 0.00 | 62 | 995.8 |
| 20260510035438 | 40 | 324 | 8.0 | 14.0 | 0.00 | 0.00 | 0.00 | 62 | 995.7 |
| 20260510034938 | 40 | 338 | 8.0 | 14.0 | 0.00 | 0.00 | 0.00 | 61 | 995.5 |
| 20260510034438 | 40 | 0 | 8.0 | 13.0 | 0.00 | 0.00 | 0.00 | 61 | 995.5 |
| 20260510033938 | 40 | 341 | 8.0 | 12.0 | 0.00 | 0.00 | 0.00 | 62 | 995.5 |
| 20260510033438 | 40 | 321 | 9.0 | 12.0 | 0.00 | 0.00 | 0.00 | 63 | 995.6 |
| 20260510032938 | 40 | 340 | 9.0 | 16.0 | 0.00 | 0.00 | 0.00 | 64 | 995.6 |
| 20260510032438 | 40 | 319 | 7.0 | 15.0 | 0.00 | 0.00 | 0.00 | 66 | 995.6 |
| 20260510031938 | 40 | 326 | 8.0 | 13.0 | 0.00 | 0.00 | 0.00 | 67 | 995.5 |
| 20260510031438 | 41 | 325 | 9.0 | 14.0 | 0.00 | 0.00 | 0.00 | 66 | 995.6 |
| 20260510030938 | 41 | 312 | 9.0 | 18.0 | 0.00 | 0.00 | 0.00 | 67 | 995.6 |
| 20260510030438 | 41 | 309 | 7.0 | 16.0 | 0.00 | 0.00 | 0.00 | 68 | 995.5 |
| 20260510025938 | 40 | 328 | 6.0 | 10.0 | 0.00 | 0.00 | 0.00 | 69 | 995.5 |
| 20260510025438 | 41 | 314 | 6.0 | 10.0 | 0.00 | 0.00 | 0.00 | 68 | 995.5 |
| 20260510024938 | 41 | 284 | 7.0 | 11.0 | 0.00 | 0.00 | 0.00 | 68 | 995.4 |
| 20260510024439 | 41 | 301 | 6.0 | 11.0 | 0.00 | 0.00 | 0.00 | 68 | 995.4 |
| 20260510023938 | 41 | 306 | 5.0 | 10.0 | 0.00 | 0.00 | 0.00 | 68 | 995.5 |
| 20260510023438 | 41 | 315 | 5.0 | 8.0 | 0.00 | 0.00 | 0.00 | 67 | 995.4 |
| 20260510022938 | 41 | 315 | 6.0 | 9.0 | 0.00 | 0.00 | 0.00 | 66 | 995.3 |
| 20260510022438 | 42 | 313 | 8.0 | 11.0 | 0.00 | 0.00 | 0.00 | 66 | 995.2 |
| 20260510021938 | 42 | 294 | 10.0 | 14.0 | 0.00 | 0.00 | 0.00 | 65 | 995.2 |
| 20260510021438 | 42 | 304 | 10.0 | 14.0 | 0.00 | 0.00 | 0.00 | 65 | 995.0 |
| 20260510020938 | 42 | 300 | 10.0 | 14.0 | 0.00 | 0.00 | 0.00 | 64 | 994.9 |
| 20260510020438 | 42 | 302 | 9.0 | 16.0 | 0.00 | 0.00 | 0.00 | 65 | 994.8 |
| 20260510015938 | 43 | 304 | 10.0 | 13.0 | 0.00 | 0.00 | 0.00 | 64 | 994.7 |
| 20260510015438 | 43 | 306 | 9.0 | 14.0 | 0.00 | 0.00 | 0.00 | 65 | 994.6 |
| 20260510014938 | 43 | 321 | 8.0 | 13.0 | 0.00 | 0.00 | 0.00 | 67 | 994.4 |
| 20260510014438 | 43 | 296 | 8.0 | 11.0 | 0.00 | 0.00 | 0.00 | 66 | 994.3 |
| 20260510013938 | 43 | 335 | 8.0 | 12.0 | 0.00 | 0.00 | 0.00 | 66 | 994.2 |
| 20260510013439 | 43 | 315 | 8.0 | 13.0 | 0.00 | 0.00 | 0.00 | 66 | 994.0 |
| 20260510012938 | 43 | 319 | 7.0 | 13.0 | 0.00 | 0.00 | 0.00 | 67 | 994.0 |
| 20260510012439 | 43 | 330 | 7.0 | 12.0 | 0.00 | 0.00 | 0.00 | 66 | 993.8 |
| 20260510011939 | 44 | 325 | 7.0 | 13.0 | 0.00 | 0.00 | 0.00 | 66 | 993.8 |
| 20260510011439 | 44 | 326 | 6.0 | 11.0 | 0.00 | 0.00 | 0.00 | 67 | 993.6 |
| 20260510010939 | 44 | 346 | 6.0 | 10.0 | 0.00 | 0.00 | 0.00 | 68 | 993.5 |
| 20260510010439 | 44 | 311 | 6.0 | 10.0 | 0.00 | 0.00 | 0.00 | 69 | 993.5 |
| 20260510005939 | 44 | 328 | 6.0 | 10.0 | 0.00 | 0.00 | 0.00 | 68 | 993.4 |
| 20260510005439 | 44 | 335 | 7.0 | 10.0 | 0.00 | 0.00 | 0.00 | 68 | 993.3 |
| 20260510004939 | 45 | 338 | 6.0 | 11.0 | 0.00 | 0.00 | 0.00 | 67 | 993.2 |
| 20260510004439 | 45 | 346 | 7.0 | 11.0 | 0.00 | 0.00 | 0.00 | 67 | 993.2 |
| 20260510003939 | 45 | 335 | 8.0 | 13.0 | 0.00 | 0.00 | 0.00 | 67 | 993.1 |
| 20260510003439 | 45 | 342 | 8.0 | 15.0 | 0.00 | 0.00 | 0.00 | 67 | 992.9 |
| 20260510002939 | 45 | 350 | 9.0 | 14.0 | 0.00 | 0.00 | 0.00 | 67 | 992.8 |
| 20260510002439 | 45 | 355 | 8.0 | 17.0 | 0.00 | 0.00 | 0.00 | 67 | 992.7 |
| 20260510001939 | 45 | 350 | 7.0 | 11.0 | 0.00 | 0.00 | 0.00 | 66 | 992.5 |
| 20260510001439 | 46 | 333 | 7.0 | 14.0 | 0.00 | 0.00 | 0.00 | 65 | 992.4 |
| 20260510000939 | 46 | 5 | 7.0 | 13.0 | 0.00 | 0.00 | 0.00 | 64 | 992.2 |
| 20260510000440 | 46 | 310 | 7.0 | 10.0 | 0.00 | 0.00 | 0.00 | 65 | 992.1 |
| 20260509235939 | 46 | 309 | 8.0 | 10.0 | 0.00 | 0.00 | 0.00 | 64 | 992.1 |
| 20260509235439 | 47 | 345 | 8.0 | 12.0 | 0.00 | 0.00 | 0.00 | 64 | 991.9 |
| 20260509234939 | 47 | 0 | 9.0 | 12.0 | 0.00 | 0.00 | 0.00 | 62 | 991.7 |
| 20260509234439 | 48 | 327 | 9.0 | 16.0 | 0.00 | 0.00 | 0.00 | 61 | 991.5 |
| 20260509233939 | 49 | 5 | 8.0 | 19.0 | 0.00 | 0.00 | 0.00 | 58 | 991.3 |
| 20260509233439 | 49 | 10 | 9.0 | 17.0 | 0.00 | 0.00 | 0.00 | 57 | 991.2 |
| 20260509232939 | 51 | 0 | 10.0 | 14.0 | 0.00 | 0.00 | 0.00 | 51 | 990.9 |
| 20260509232439 | 52 | 334 | 13.0 | 17.0 | 0.00 | 0.00 | 0.00 | 44 | 990.8 |
| 20260509231939 | 52 | 298 | 16.0 | 23.0 | 0.00 | 0.00 | 0.00 | 43 | 990.8 |
| 20260509231439 | 52 | 309 | 17.0 | 24.0 | 0.00 | 0.00 | 0.00 | 43 | 990.6 |
| 20260509230939 | 52 | 314 | 15.0 | 25.0 | 0.00 | 0.00 | 0.00 | 43 | 990.6 |
| 20260509230439 | 53 | 329 | 14.0 | 25.0 | 0.00 | 0.00 | 0.00 | 41 | 990.5 |
| 20260509225939 | 52 | 323 | 14.0 | 20.0 | 0.00 | 0.00 | 0.00 | 42 | 990.4 |